Regional Weather Roundup
Issued by NWS Sterling, VA

Home | Current Version | Previous Version | Text Only | Print | Product List | Glossary On
Versions: 1 2 3 4 5 6 7 8 9 10 11 12 13 14 15 16 17 18 19 20 21 22 23 24 25 26 27 28
000
ASUS41 KLWX 032310
RWRLWX

REGIONAL WEATHER ROUNDUP
NATIONAL WEATHER SERVICE BALTIMORE MD/WASHINGTON DC
700 PM EDT TUE MAY 03 2016

Note: "FAIR" indicates few or no clouds below 12,000 feet
with no significant weather and/or obstructions to visibility.
 TC=TEMPERATURE CELSIUS

 * =Non NWS site. Station does not report precipitation (e.g. rain,
    snow, etc.), thunder, or fog.

DCZ001-MDZ009-015-VAZ040>042-051-053>054-040000-
WASHINGTON METRO

CITY           SKY/WX    TMP DP  RH WIND       PRES   REMARKS
WASHINGTON NAT PTSUNNY   63  59  87 E13       29.75S
DULLES         PTSUNNY   64  57  78 E9        29.74S
ANDREWS AFB    PTSUNNY   61  59  91 E12       29.74S
FT BELVOIR     FAIR      64  61  87 VRB6      29.74R
QUANTICO       PTSUNNY   65  61  87 NE6       29.74S
COLLEGE PARK*  FAIR      63  57  82 E6        29.75F
LEESBURG*      CLOUDY    64  61  88 SE5       29.74F
MANASSAS*      SUNNY     66  61  82 SE6       29.73F
GAITHERSBURG*  PTSUNNY   63  54  72 NE6       29.78F

$$

MDZ006>007-011-014-040000-
BALTIMORE METRO

CITY           SKY/WX    TMP DP  RH WIND       PRES   REMARKS
BWI AIRPORT    LGT RAIN  60  56  86 E14       29.76F
MD SCIENCE CTR   N/A     62  56  80 MISG      29.77S
MARTIN STATE   PTSUNNY   61  57  88 NE7       29.78F
ANNAPOLIS      CLOUDY    61  57  87 E6        29.78S
FORT MEADE*    PTSUNNY   59  55  88 E9        29.78F

$$

MDZ012-015-019>023-040000-
MARYLAND EASTERN SHORE

CITY           SKY/WX    TMP DP  RH WIND       PRES   REMARKS
OCEAN CITY     CLOUDY    54  53  97 NE8       29.79R FOG
SALISBURY      CLOUDY    60  57  89 NE10      29.77R
CAMBRIDGE*     CLOUDY    61  57  88 N6        29.78R
EASTON*        CLOUDY   N/A N/A N/A E6        29.82R

$$

MDZ017>025-040000-
SOUTHERN MARYLAND

CITY           SKY/WX    TMP DP  RH WIND       PRES   REMARKS
PATUXENT RIVER LGT RAIN  61  58  90 N12       29.78R FOG
ST INIGOES     TSTM      61  60  97 VRB5      29.78R FOG
LEONARDTOWN*   CLOUDY    59  55  88 CALM      29.81R

$$

MDZ003>005-040000-
NORTH CENTRAL MARYLAND

CITY           SKY/WX    TMP DP  RH WIND       PRES   REMARKS
FREDERICK*     PTSUNNY   64  59  82 E3        29.78R
HAGERSTOWN APT CLOUDY    61  55  81 E8        29.74S
WESTMINSTER*   LGT RAIN  63  54  72 SE6       29.77S

$$

MDZ501>502-040000-
WESTERN MARYLAND

CITY           SKY/WX    TMP DP  RH WIND       PRES   REMARKS
OAKLAND*       CLOUDY    50  46  87 NW3       29.82R FOG
CUMBERLAND*    CLOUDY    68  45  42 NW8       29.80R

$$

VAZ025>031-040000-
SHENANDOAH VALLEY

CITY           SKY/WX    TMP DP  RH WIND       PRES   REMARKS
WINCHESTER*    LGT RAIN  64  59  82 CALM      29.75R
FRONT ROYAL*   CLOUDY    63  59  88 CALM      29.75R
LURAY*         MOCLDY    64  63  94 NE7       29.74R
NEW MARKET*    FAIR      65  59  81 NE5       29.73S
STAUNTON*      FAIR      66  60  81 NE6       29.75S
WAYNESBORO*    MOCLDY    71  52  51 SW3       29.73S

$$

WVZ021-048>050-054>055-040000-
EASTERN WEST VIRGINIA PANHANDLE

CITY           SKY/WX    TMP DP  RH WIND       PRES   REMARKS
MARTINSBURG    CLOUDY    63  56  78 E3        29.74S
PETERSBURG*    CLOUDY    66  53  63 NW9       29.77R

$$

VAZ036>039-050-040000-
CENTRAL FOOTHILLS

CITY           SKY/WX    TMP DP  RH WIND       PRES   REMARKS
CHARLOTTESVILL FAIR      67  58  72 NE9       29.73S
CULPEPER*      PTSUNNY   66  62  87 CALM      29.75R
ORANGE*        FAIR      64  61  88 NE5       29.75S
GORDONSVILLE*  FAIR      64  60  85 NE3       29.73S
WARRENTON*     FAIR      66  57  71 NE5       29.74R

$$

VAZ055>057-040000-
NORTH AND CENTRAL PIEDMONT

CITY           SKY/WX    TMP DP  RH WIND       PRES   REMARKS
FREDERICKSBRG* NOT AVBL
STAFFORD*      CLOUDY    63  60  90 E7        29.78R

$$

NCZ024-NYZ072-PAZ021-071-VAZ022-071-040000-
OTHER REGIONAL OBSERVATIONS

CITY           SKY/WX    TMP DP  RH WIND       PRES   REMARKS
NEW YORK CITY  CLOUDY    53  49  86 E7        29.85S
PHILADELPHIA   CLOUDY    57  51  80 E7        29.82R
PITTSBURGH     CLOUDY    60  40  47 W12       29.79S
ROANOKE        PTSUNNY   73  51  46 NW10      29.77R
RICHMOND       LGT RAIN  61  58  90 NE14      29.74R
RALEIGH        CLOUDY    66  63  90 S6        29.73F

$$

ANZ530>537-040000-
MARINE OBSERVATIONS

STATION/POSITION TIME  TEMP    WIND        PRES
                       AIR SEA DIR/SP/G
                 (UTC) (F)     (DEG/KT/KT) (MB)
THOMAS PT LIGHT  2300   60 59   60/  7/  9 1009.9R
BALT KEY BRIDGE  2200   60                 1007.9R
COVE POINT       2200   61                 1008.4R
LEWISETTA        2200   65 65              1006.5S
SOLOMONS ISLAND  2200   62 61                N/A
PINEY POINT      2200           60/  9/ 11   N/A

$$





USA.gov is the U.S. government's official web portal to all federal, state and local government web resources and services.